TimeEST,TemperatureF,Dew PointF,Humidity,Sea Level PressureIn,VisibilityMPH,Wind Direction,Wind SpeedMPH,Gust SpeedMPH,PrecipitationIn,Events,Conditions,WindDirDegrees,DateUTC
12:53 AM,45.0,30.0,56,30.26,10.0,Calm,Calm,-,N/A,,Mostly Cloudy,0,2012-02-16 05:53:00
1:53 AM,45.0,28.9,53,30.24,10.0,Calm,Calm,-,N/A,,Partly Cloudy,0,2012-02-16 06:53:00
2:53 AM,44.6,28.4,53,30.24,10.0,Calm,Calm,-,N/A,,Partly Cloudy,0,2012-02-16 07:53:00
3:53 AM,43.0,30.0,60,30.22,10.0,Calm,Calm,-,N/A,,Overcast,0,2012-02-16 08:53:00
4:53 AM,43.0,30.9,62,30.23,10.0,Calm,Calm,-,N/A,,Mostly Cloudy,0,2012-02-16 09:53:00
5:53 AM,43.0,30.9,62,30.22,10.0,SSW,8.1,-,N/A,,Overcast,210,2012-02-16 10:53:00
6:53 AM,44.1,30.9,60,30.21,10.0,South,6.9,-,0.00,Rain,Light Rain,180,2012-02-16 11:53:00
7:53 AM,43.0,34.0,71,30.21,10.0,SSW,3.5,-,0.00,,Overcast,200,2012-02-16 12:53:00
8:53 AM,44.1,34.0,68,30.19,10.0,SSW,6.9,-,N/A,,Overcast,200,2012-02-16 13:53:00
9:53 AM,44.1,36.0,73,30.20,10.0,South,4.6,-,0.00,Rain,Light Rain,190,2012-02-16 14:53:00
10:53 AM,43.0,37.9,82,30.17,4.0,Calm,Calm,-,0.06,Rain,Light Rain,0,2012-02-16 15:53:00
11:53 AM,44.1,41.0,89,30.16,6.0,South,8.1,-,0.07,Rain,Light Rain,180,2012-02-16 16:53:00
12:53 PM,44.1,41.0,89,30.11,10.0,South,4.6,-,0.02,,Overcast,190,2012-02-16 17:53:00
1:46 PM,44.6,42.8,93,30.10,2.0,Calm,Calm,-,0.02,Rain,Light Rain,0,2012-02-16 18:46:00
1:53 PM,45.0,42.1,90,30.10,2.0,Calm,Calm,-,0.03,Rain,Light Rain,0,2012-02-16 18:53:00
2:00 PM,44.6,42.8,93,30.09,2.5,Calm,Calm,-,0.01,Rain,Light Rain,0,2012-02-16 19:00:00
2:08 PM,44.6,42.8,93,30.08,2.0,Calm,Calm,-,0.01,Rain,Light Rain,0,2012-02-16 19:08:00
2:53 PM,45.0,42.1,90,30.08,2.0,South,3.5,-,0.05,Rain,Light Rain,180,2012-02-16 19:53:00
3:53 PM,46.0,43.0,89,30.04,4.0,South,6.9,-,0.01,,Overcast,180,2012-02-16 20:53:00
4:04 PM,44.6,42.8,93,30.03,9.0,South,5.8,-,N/A,,Overcast,170,2012-02-16 21:04:00
4:53 PM,45.0,42.1,90,30.02,8.0,SSE,5.8,-,0.00,,Overcast,150,2012-02-16 21:53:00
5:14 PM,44.6,42.8,93,30.03,8.0,South,3.5,-,N/A,,Overcast,180,2012-02-16 22:14:00
6:53 PM,45.0,42.1,90,30.04,7.0,SE,4.6,-,N/A,,Overcast,140,2012-02-16 23:53:00
7:53 PM,43.0,41.0,93,30.02,7.0,SSW,4.6,-,N/A,,Mostly Cloudy,210,2012-02-17 00:53:00
8:16 PM,42.8,41.0,93,30.02,2.5,Calm,Calm,-,N/A,,Mostly Cloudy,0,2012-02-17 01:16:00
8:23 PM,42.8,41.0,93,30.02,6.0,Calm,Calm,-,N/A,,Overcast,0,2012-02-17 01:23:00
8:44 PM,42.8,41.0,93,30.02,6.0,Calm,Calm,-,N/A,,Overcast,0,2012-02-17 01:44:00
8:53 PM,44.1,41.0,89,30.02,6.0,Calm,Calm,-,N/A,,Overcast,0,2012-02-17 01:53:00
9:00 PM,42.8,41.0,93,30.02,2.0,Calm,Calm,-,N/A,,Overcast,0,2012-02-17 02:00:00
9:32 PM,44.6,42.8,93,30.02,3.0,Calm,Calm,-,N/A,,Overcast,0,2012-02-17 02:32:00
9:40 PM,44.6,42.8,93,30.02,2.5,Calm,Calm,-,N/A,,Overcast,0,2012-02-17 02:40:00
9:47 PM,44.6,42.8,93,30.02,3.0,Calm,Calm,-,N/A,,Overcast,0,2012-02-17 02:47:00
9:53 PM,44.1,42.1,93,30.02,2.5,Calm,Calm,-,N/A,,Overcast,0,2012-02-17 02:53:00
10:11 PM,44.6,42.8,93,30.01,3.0,Calm,Calm,-,N/A,,Overcast,0,2012-02-17 03:11:00
10:26 PM,44.6,42.8,93,30.02,2.5,Calm,Calm,-,N/A,,Overcast,0,2012-02-17 03:26:00
10:33 PM,44.6,42.8,93,30.02,4.0,Calm,Calm,-,N/A,,Overcast,0,2012-02-17 03:33:00
10:44 PM,44.6,42.8,93,30.02,2.0,Calm,Calm,-,N/A,,Overcast,0,2012-02-17 03:44:00
10:53 PM,44.1,42.1,93,30.03,3.0,Calm,Calm,-,N/A,,Overcast,0,2012-02-17 03:53:00
11:04 PM,42.8,42.8,100,30.02,2.5,SSE,3.5,-,N/A,,Overcast,160,2012-02-17 04:04:00
11:13 PM,42.8,42.8,100,30.01,1.2,SE,3.5,-,N/A,,Overcast,140,2012-02-17 04:13:00
11:44 PM,42.8,41.0,93,30.00,0.5,Calm,Calm,-,N/A,Fog,Fog,0,2012-02-17 04:44:00
11:53 PM,43.0,41.0,93,30.00,0.5,Calm,Calm,-,N/A,Fog,Fog,0,2012-02-17 04:53:00